[[{"header":{"parameterUnit":"m.s-1","parameterCategory":1,"la1":30.2991,"la2":30.254,"lo1":-89.0895,"lo2":-89.0444,"dy":0.0017,"dx":0.0017,"nx":28,"ny":28,"refTime":"2025-07-18T03:00:00:Z","depth":0,"parameterNumber":2,"parameterNumberName":"U-component_of_WINDS"},"data":[0,0,0,0,0,0,0,0,0,0,0,0,0,0,0,0,0,0,0,0,0,0,0,0,0,0,0,0,0,0,0,0,0,0,0,0,0,0,0,0,0,0,0,0,0,0,0,0,0,0,0,0,0,0,0,0,0,0,0.9867,0.9867,0,0.9779,0.9778,0.9777,0.9673,0.9671,0.9669,0.9668,0.9578,0.9577,0.9577,0,0,0,0,0,0,0,0,0,0,0,0,0,0.9946,0.9945,0.9868,0.9866,0.9865,0.9779,0.9778,0.9777,0.9673,0.9671,0.9669,0.9667,0.9579,0.9578,0.9576,0,0,0,0,0,0,0,0,0,0,0,0,0,0.989,0.9945,0.9868,0.9803,0.9796,0.9779,0.9778,0.9776,0.9673,0.9671,0.9668,0.9666,0.9579,0.9578,0.9576,0.9616,0,0,0.9572,0.9572,0,0,0,0,0,0,0,0,0.9894,0.9887,0.9814,0.9807,0.98,0.9734,0.9773,0.9723,0.9674,0.972,0.9668,0.9665,0.9632,0.9626,0.9615,0.9612,0.9608,0.9572,0.9571,0.9571,0.957,0,0,0,0,0,0,0,0.9898,0.9891,0.9832,0.9813,0.9804,0.9778,0.9768,0.9763,0.9691,0.9716,0.9708,0.9699,0.9628,0.9617,0.9612,0.9607,0.9572,0.9571,0.957,0.957,0.9628,0.963,0,0,0,0,0,0,0.9911,0.9895,0.9835,0.983,0.9842,0.9779,0.9767,0.9758,0.969,0.9678,0.9701,0.9694,0.962,0.9614,0.9609,0.9648,0.9571,0.9569,0.9569,0.9626,0.9629,0.9631,0,0,0,0,0,0,0.9913,0.9907,0.9839,0.986,0.9849,0.978,0.9771,0.9757,0.9746,0.9679,0.9666,0.9703,0.9618,0.9611,0.9614,0.9644,0.9569,0.9568,0.9623,0.9627,0.963,0.9729,0,0,0,0,0,0,0.9916,0.9908,0.9923,0.9861,0.9849,0.9846,0.9772,0.9757,0.9744,0.9734,0.9677,0.9665,0.9615,0.9617,0.9613,0.964,0.9567,0.962,0.9625,0.9629,0.9723,0.9736,0.9747,0,0,0,0,0,0.9919,0.9955,0.9924,0.9918,0.9866,0.9848,0.9841,0.9783,0.9747,0.976,0.9717,0.9667,0.9641,0.9618,0.9613,0.964,0.9618,0.9623,0.9628,0.9718,0.9733,0.9746,0,0,0,0,0,0,1.0023,0.9946,0.9911,0.9928,0.9896,0.9831,0.9846,0.9801,0.9779,0.9771,0.9699,0.9687,0.9699,0.967,0.9645,0.9673,0.9622,0.9627,0.9692,0.9706,0.9718,0.9724,0.9565,0,0,0,0,0,1.0048,1.0041,0.9974,0.9996,0.9981,0.9917,0.9907,0.9865,0.9828,0.9814,0.9771,0.9738,0.9721,0.9712,0.9694,0.9719,0.9703,0.9735,0.9747,0.9757,0.9761,0.9769,0.9781,0.9648,0.9648,0.9648,0,0,1.01,1.0057,1.0057,1.0015,0.9985,0.9978,0.9906,0.9902,0.9896,0.9813,0.9813,0.9781,0.9738,0.9752,0.9756,0.9728,0.9794,0.9763,0.9772,0.9771,0.9776,0.9788,0.9799,0.9652,0.9651,0.9651,0,0,1.019,1.0157,1.017,1.0141,1.0096,1.0052,1.0056,0.9997,0.9972,0.9971,0.9908,0.9899,0.9874,0.9845,0.9828,0.9905,0.9857,0.9901,0.9962,0.9971,0.9981,0.999,1.0015,1.0025,0.9906,0.9906,0.9906,0,1.0259,1.0246,1.0183,1.0182,1.0165,1.0089,1.0101,1.0076,1.0027,1.0017,0.9987,0.9951,0.9918,0.9922,0.994,0.9929,0.9929,0.9906,0.9985,0.9993,1.0,1.0023,1.0033,0.9911,0.9911,0.991,0.991,0,1.0333,1.0325,1.0341,1.0295,1.0279,1.0286,1.0222,1.0215,1.0173,1.0133,1.0131,1.0088,1.0058,1.0057,1.0017,1.0055,1.0038,0.9998,0.9944,1.0019,1.004,1.0048,0.9919,0.9917,0.9915,0.9914,0,0,1.0486,1.0403,1.041,1.0387,1.033,1.0323,1.0325,1.0295,1.0288,1.0257,1.0256,1.0235,1.0196,1.0176,1.0132,1.014,1.02,1.0097,1.0095,1.0116,1.0236,1.0266,1.0277,1.0169,1.017,1.0171,1.0239,0,1.0564,1.0562,1.0504,1.0518,1.0509,1.0436,1.0437,1.0402,1.0364,1.035,1.0308,1.0294,1.0245,1.0232,1.0236,1.0192,1.0223,1.0186,1.0165,1.0165,1.0176,1.0288,1.032,1.0386,1.0246,1.0248,1.0249,0,1.0654,1.0627,1.064,1.0581,1.0575,1.0577,1.0543,1.0532,1.049,1.0462,1.0439,1.0388,1.0384,1.0335,1.0328,1.0304,1.0292,1.0269,1.027,1.0264,1.0211,1.0284,1.0406,1.0415,1.0261,1.026,1.0259,0,1.0762,1.0728,1.0731,1.0714,1.0646,1.0648,1.062,1.0576,1.0561,1.0532,1.0521,1.0493,1.0477,1.0455,1.0398,1.0368,1.0396,1.0343,1.0371,1.0373,1.038,1.038,1.05,1.0376,1.0376,1.0375,1.0375,0,1.0853,1.0864,1.0778,1.0779,1.0788,1.0721,1.0732,1.0696,1.0657,1.065,1.0586,1.058,1.0505,1.0491,1.0446,1.0446,1.044,1.0415,1.0403,1.042,1.0423,1.041,1.0403,1.0378,1.0377,1.0377,1.0376,0,1.0974,1.0917,1.0915,1.085,1.0834,1.0843,1.0787,1.0785,1.0743,1.0734,1.0728,1.0662,1.0641,1.0582,1.0547,1.0517,1.0528,1.0507,1.0542,1.0534,1.0565,1.0562,1.0679,1.069,1.0562,1.0563,1.0564,0,1.1035,1.1041,1.0977,1.0967,1.0941,1.0927,1.091,1.0845,1.083,1.0782,1.0786,1.076,1.0735,1.0706,1.0654,1.0626,1.0602,1.0644,1.0597,1.0613,1.0599,1.0599,1.0598,1.0655,1.0656,1.0658,1.0659,0,1.1149,1.112,1.11,1.1069,1.1051,1.1024,1.0993,1.0989,1.0915,1.0902,1.0879,1.0861,1.0823,1.0798,1.0761,1.0731,1.0682,1.0674,1.0679,1.0696,1.0715,1.0702,1.0568,1.0672,1.067,1.0669,1.0669,1.0668,1.124,1.1241,1.1195,1.1174,1.1143,1.1115,1.111,1.1066,1.1047,1.1011,1.0974,1.0955,1.0911,1.0856,1.083,1.0813,1.0788,1.0795,1.0797,1.0799,1.0806,1.0719,1.0807,1.0806,1.0806,1.0805,1.0805,0,1.1349,1.1315,1.1296,1.1254,1.1237,1.1193,1.1156,1.1144,1.1128,1.1091,1.1068,1.1042,1.1016,1.0962,1.0931,1.0928,1.0905,1.0922,1.092,1.0914,1.0832,1.083,1.0941,1.0941,1.0941,1.0941,1.0941,1.0941,1.1403,1.1401,1.1367,1.1349,1.1315,1.1296,1.1279,1.1252,1.1222,1.1195,1.1173,1.1138,1.1093,1.1058,1.1032,1.1016,1.1007,1.1031,1.1009,1.0933,1.092,1.0908,1.0905,1.103,1.1031,1.1091,1.1092,1.1092]},{"header":{"parameterUnit":"m.s-1","parameterCategory":1,"la1":30.2991,"la2":30.254,"lo1":-89.0895,"lo2":-89.0444,"dy":0.0017,"dx":0.0017,"nx":28,"ny":28,"refTime":"2025-07-18T03:00:00:Z","depth":0,"parameterNumber":3,"parameterNumberName":"V-component_of_WINDS"},"data":[0,0,0,0,0,0,0,0,0,0,0,0,0,0,0,0,0,0,0,0,0,0,0,0,0,0,0,0,0,0,0,0,0,0,0,0,0,0,0,0,0,0,0,0,0,0,0,0,0,0,0,0,0,0,0,0,0,0,4.8926,4.8927,0,4.9053,4.9054,4.9056,4.902,4.9018,4.9015,4.9013,4.914,4.9146,4.9152,0,0,0,0,0,0,0,0,0,0,0,0,0,4.8648,4.8653,4.8926,4.8927,4.8929,4.9053,4.9054,4.9056,4.9021,4.9018,4.9014,4.9011,4.9139,4.9145,4.9152,0,0,0,0,0,0,0,0,0,0,0,0,0,4.8771,4.8655,4.8925,4.8926,4.8927,4.9052,4.9055,4.9057,4.9021,4.9017,4.9014,4.901,4.9136,4.9145,4.9153,4.9284,0,0,4.918,4.9184,0,0,0,0,0,0,0,0,4.8764,4.8781,4.8924,4.8926,4.8928,4.9017,4.9003,4.9133,4.9022,4.8986,4.9013,4.9008,4.9102,4.9114,4.9146,4.929,4.9296,4.9181,4.9186,4.919,4.9192,0,0,0,0,0,0,0,4.8756,4.8776,4.8976,4.8927,4.8929,4.8919,4.8932,4.9028,4.9064,4.8989,4.8986,4.9002,4.9102,4.9138,4.9149,4.9298,4.918,4.9188,4.9194,4.9197,4.9553,4.9557,0,0,0,0,0,0,4.8746,4.8769,4.8972,4.898,4.8835,4.8927,4.8942,4.8992,4.9063,4.907,4.9005,4.9,4.9125,4.9138,4.9153,4.9309,4.919,4.9198,4.9203,4.9549,4.9554,4.9559,0,0,0,0,0,0,4.8741,4.8765,4.8967,4.8874,4.8899,4.8936,4.8993,4.8997,4.9032,4.9075,4.9081,4.9035,4.9122,4.9141,4.9251,4.9313,4.9202,4.921,4.9544,4.955,4.9556,4.9623,0,0,0,0,0,0,4.8733,4.8763,4.8814,4.8875,4.8904,4.9065,4.8997,4.9002,4.9047,4.9041,4.9105,4.9111,4.912,4.9239,4.926,4.9323,4.9216,4.9539,4.9547,4.9554,4.9615,4.9631,4.9644,0,0,0,0,0,4.8723,4.8828,4.8817,4.8842,4.8969,4.9068,4.9085,4.9094,4.9052,4.9103,4.9131,4.9109,4.9303,4.925,4.9274,4.934,4.9535,4.9544,4.9554,4.9609,4.9628,4.9644,0,0,0,0,0,0,4.8773,4.8836,4.8825,4.8953,4.9006,4.9062,4.9127,4.9114,4.9179,4.917,4.9178,4.9193,4.9305,4.9334,4.9274,4.9469,4.9413,4.9427,4.9446,4.9465,4.9479,4.9468,4.9224,0,0,0,0,0,4.8799,4.8876,4.8926,4.9035,4.9062,4.909,4.9133,4.9136,4.919,4.9212,4.9248,4.9301,4.9373,4.9421,4.949,4.962,4.9632,4.9677,4.9691,4.9703,4.9715,4.9783,4.9803,4.959,4.959,4.959,0,0,4.8854,4.8898,4.8945,4.9046,4.9087,4.9164,4.9109,4.9194,4.925,4.9225,4.9331,4.9359,4.9418,4.9539,4.9593,4.9566,4.9776,4.9715,4.9724,4.973,4.9794,4.9815,4.9832,4.9596,4.9595,4.9594,0,0,4.8992,4.9034,4.9127,4.9169,4.9232,4.925,4.9272,4.9331,4.9349,4.9456,4.9437,4.9504,4.963,4.9672,4.971,4.9862,4.9844,4.9885,4.9959,5.0025,5.0041,5.0056,5.0108,5.0127,4.9897,4.9897,4.9897,0,4.9051,4.9168,4.9177,4.9263,4.9306,4.9287,4.938,4.942,4.9503,4.9532,4.9501,4.9656,4.9695,4.9823,4.986,4.9892,4.9916,4.9877,5.0039,5.0054,5.0067,5.0117,5.0137,4.9901,4.9901,4.9901,4.99,0,4.9237,4.9318,4.9386,4.9465,4.9517,4.9606,4.9626,4.9677,4.9675,4.9695,4.9803,4.9849,4.9926,4.9957,4.9955,5.0084,5.0065,5.0036,4.9979,5.0092,5.0138,5.0158,4.9908,4.9906,4.9905,4.9904,0,0,4.941,4.9492,4.9517,4.9552,4.9619,4.9681,4.9768,4.9844,4.9886,4.9943,5.0015,5.0121,5.0094,5.0137,5.014,5.0198,5.0313,5.0162,5.0163,5.0186,5.0455,5.0474,5.0496,5.0302,5.0305,5.0308,5.0449,0,4.9552,4.9707,4.9716,4.9856,4.9929,4.9911,4.9987,5.0035,5.0056,5.0121,5.0144,5.0218,5.0178,5.0203,5.0261,5.0287,5.0366,5.0277,5.0366,5.0369,5.035,5.0521,5.0543,5.0673,5.0467,5.047,5.0473,0,4.9739,4.9801,4.9948,5.0002,5.0033,5.0102,5.017,5.0233,5.0286,5.0297,5.0345,5.0339,5.0427,5.0368,5.0487,5.0426,5.0463,5.0481,5.0487,5.0494,5.0427,5.0531,5.0715,5.0734,5.0502,5.05,5.0497,0,4.9848,4.9968,5.0071,5.0101,5.0168,5.0216,5.0246,5.0296,5.034,5.04,5.0428,5.0497,5.0535,5.0588,5.06,5.0556,5.0719,5.0661,5.0729,5.0728,5.0762,5.076,5.0953,5.079,5.079,5.0789,5.0789,0,5.0004,5.0094,5.012,5.0183,5.0282,5.0291,5.0389,5.0415,5.046,5.0526,5.0515,5.0577,5.0591,5.0656,5.0666,5.0762,5.078,5.079,5.0791,5.079,5.0788,5.0813,5.0803,5.0795,5.0793,5.0792,5.0791,0,5.0142,5.0163,5.0273,5.0327,5.0343,5.0413,5.0458,5.0518,5.0537,5.0621,5.0642,5.0672,5.0747,5.0765,5.0855,5.0862,5.0975,5.0968,5.0957,5.0955,5.1021,5.1014,5.1236,5.1264,5.1084,5.1086,5.1087,0,5.0239,5.0308,5.0369,5.0412,5.0444,5.0515,5.056,5.0571,5.0618,5.0683,5.0734,5.0808,5.0868,5.0989,5.1018,5.1086,5.108,5.1153,5.109,5.1085,5.1078,5.1073,5.1079,5.1164,5.1166,5.1168,5.1169,0,5.0409,5.0416,5.0481,5.055,5.0603,5.0658,5.071,5.0746,5.0764,5.0817,5.0894,5.094,5.1031,5.1104,5.1172,5.1201,5.1188,5.1189,5.1208,5.1206,5.1195,5.1199,5.0987,5.1183,5.1182,5.1181,5.118,5.118,5.0528,5.0587,5.0639,5.0711,5.0751,5.0799,5.0857,5.0883,5.0948,5.1023,5.1026,5.1109,5.1158,5.1249,5.1282,5.1346,5.1323,5.1351,5.1358,5.1364,5.1368,5.1187,5.1358,5.1358,5.1358,5.1357,5.1357,0,5.0695,5.0727,5.0794,5.0866,5.0923,5.0906,5.0962,5.101,5.1083,5.1131,5.119,5.1277,5.1347,5.1381,5.145,5.1495,5.149,5.1512,5.1508,5.1514,5.1386,5.1362,5.1515,5.1515,5.1515,5.1515,5.1515,5.1514,5.0789,5.0887,5.0899,5.1016,5.1047,5.1129,5.1162,5.1206,5.1244,5.1341,5.14,5.1422,5.1464,5.1535,5.1598,5.1606,5.1631,5.1656,5.1661,5.154,5.1524,5.1508,5.1486,5.1662,5.1662,5.1784,5.1785,5.1786]}]]